Location: Larrial
(48.2758°N, 4.5331°W)
Time: 06:01:43
(UTC+00:00)

STARLINK-1138 - Pass Details

Date: 09 April 2020
Orbit: 549 x 551 km, 53.0° (Epoch: 29 May)

Event Time Altitude Azimuth Distance (km) Brightness Sun altitude
Rises 19:54:50 0° 293° (WNW) 2,726 9.6 -9.4°
Reaches altitude 10° 19:57:06 10° 297° (WNW) 1,831 7.9 -9.7°
Maximum altitude 20:01:13 59° 18° (NNE) 640 4.0 -10.3°
Enters shadow 20:04:39 14° 96° (E) 1,569 5.3 -10.8°
